Content
SEND FEEDBACK

Daily
Averages
Monthly
Summary
United States of America

CAMP QUEZON, GUAM


Home > North America > United States > Guam
Elevation: 82 meters     Latitude: 13 28N     Longitude: 144 48E

WEATHER
 
SELECT A DAY
Number of Records: 213,810;   Date Range: 1/1/95 - 10/21/14
 
SHARE

PRINT THIS DATA

[ ← Previous Day ]
WEATHER ALMANAC - 25 FEBRUARY, 2013
[ Next Day → ]
[ °F ]   °C
Weather ElementAverageHighLow
Temperature27.1 °C30 °C (12:54 pm)23.9 °C (5:54 am)
Dewpoint22.4 °C23.2 °C (9:54 pm)21.1 °C (7:54 am)
Humidity75.8 %91 % (7:54 pm)63 % (11:54 am)
Barometer1012.5 hPa1014.2 hPa (8:54 am)1010.8 hPa (3:54 pm)
Wind Speed26.7 km/h35.2 km/h (1:16 pm)
Wind Gust51.8 km/h (1:43 pm)
Weather ElementAverage
Visibility15.9 km
Wind DirectionENE (50.7 °)

Weather ElementTotal
Precipitation3.05 mm
Cooling Degree Days8.6 (Base 18.3)
Growing Degree Days16.9 (Base 10)
Averaged from 28 records on 25 February, 2013
WEATHER CONDITIONS BREAKOUT
WIND DIRECTION BREAKOUT
WEATHER BY HOUR - 25 FEBRUARY, 2013
[ °F ]   °C
Local TimeTemperatureDewpointHumidityBarometerVisibilityWind DirectionWind SpeedGust SpeedPrecipitationEventsConditions
1:54 AM24.4 °C21.7 °C85 %1012.5 hPa16.1 kmENE (60°)14.8 km/hClear
2:54 AM25.3 °C22.1 °C82 %1012.2 hPa16.1 kmENE (60°)20.4 km/h33.3 km/hMostly Cloudy
3:54 AM25.1 °C22.2 °C84 %1011.9 hPa16.1 kmENE (60°)20.4 km/hPartly Cloudy
4:54 AM25.3 °C22.5 °C84 %1011.9 hPa16.1 kmNE (50°)16.7 km/hClear
5:54 AM23.9 °C21.7 °C87 %1012.2 hPa16.1 kmNE (50°)16.7 km/hClear
6:54 AM24.4 °C21.7 °C85 %1012.9 hPa16.1 kmENE (70°)18.5 km/hClear
7:54 AM25.6 °C21.1 °C76 %1013.9 hPa16.1 kmENE (60°)18.5 km/hPartly Cloudy
8:54 AM27.4 °C22.5 °C74 %1014.2 hPa16.1 kmNE (50°)25.9 km/h35.2 km/hPartly Cloudy
9:54 AM29 °C22 °C66 %1014.2 hPa16.1 kmNE (40°)31.5 km/h42.6 km/hScattered Clouds
10:54 AM29.1 °C21.8 °C65 %1013.9 hPa16.1 kmENE (60°)33.3 km/h40.7 km/hClear
11:54 AM29.9 °C22.1 °C63 %1013.2 hPa16.1 kmENE (60°)31.5 km/h44.4 km/hScattered Clouds
12:54 PM30 °C23 °C66 %1012.5 hPa16.1 kmNE (40°)29.6 km/h42.6 km/hMostly Cloudy
1:16 PM28 °C23 °C74 %1012.9 hPa16.1 kmNE (50°)35.2 km/h42.6 km/h0.76 mmMostly Cloudy
1:43 PM29 °C23 °C70 %1012.9 hPa16.1 kmNE (50°)35.2 km/h51.8 km/h0.76 mmMostly Cloudy
1:50 PM29 °C23 °C70 %1012.5 hPa16.1 kmNE (50°)33.3 km/h51.8 km/h0.76 mmMostly Cloudy
1:54 PM29.2 °C23 °C69 %1011.9 hPa16.1 kmNE (40°)29.6 km/h44.4 km/h0.76 mmMostly Cloudy
2:45 PM29 °C22 °C66 %1012.2 hPa16.1 kmENE (60°)31.5 km/hMostly Cloudy
2:54 PM29 °C22.4 °C67 %1011.2 hPa16.1 kmNE (50°)33.3 km/hMostly Cloudy
3:12 PM30 °C23 °C66 %1011.9 hPa16.1 kmNE (50°)33.3 km/hScattered Clouds
3:54 PM29.2 °C22.7 °C68 %1010.8 hPa16.1 kmNE (40°)29.6 km/h38.9 km/hPartly Cloudy
4:54 PM28.3 °C21.1 °C65 %1011.5 hPa16.1 kmENE (60°)31.5 km/h42.6 km/hPartly Cloudy
5:54 PM27.2 °C22.2 °C74 %1012.2 hPa16.1 kmNE (40°)25.9 km/h0 mmRainLight Rain
6:54 PM25.6 °C22.8 °C84 %1012.5 hPa12.9 kmNE (50°)33.3 km/h46.3 km/h0 mmRainRain
7:54 PM24.4 °C22.8 °C91 %1012.9 hPa16.1 kmNE (40°)16.7 km/h0 mmScattered Clouds
8:54 PM24.4 °C22.2 °C87 %1013.5 hPa16.1 kmNE (50°)25.9 km/hOvercast
9:54 PM26 °C23.2 °C84 %1013.5 hPa16.1 kmNE (40°)25.9 km/hOvercast
10:54 PM25.7 °C23.2 °C86 %1013.2 hPa16.1 kmNE (40°)24.1 km/hOvercast
11:54 PM25 °C22.2 °C84 %1013.2 hPa16.1 kmNE (50°)24.1 km/hOvercast
Hourly data recorded from PGUM, located 0 kilometers away from Camp Quezon, Guam







STORIES FROM OUR PARTNERS